Temp
-16 -17 -17 -17 -17 -16 -16 -16 -15 -15 -15 -16 -16 -16 -16 -16 -16 -16 -17 -17 -17 -17 -16 -16 -16 -16 -16 -16 -16 -16 -16 -16 -17 -18 -17 -17 -17 -18 -18 -19 -19 -20 -20 -21
-17 -17 -17 -17 -17 -16 -16 -16 -15 -15 -15 -15 -16 -16 -16 -17 -16 -17 -17 -17 -17 -16 -16 -16 -16 -16 -16 -16 -16 -16 -16 -17 -17 -17 -17 -18 -18 -18 -19 -19 -20 -20 -21 -21
-17 -17 -17 -17 -16 -16 -16 -16 -16 -15 -15 -15 -15 -16 -16 -16 -16 -16 -17 -17 -17 -16 -17 -16 -16 -16 -16 -16 -16 -16 -17 -18 -18 -18 -18 -18 -19 -19 -20 -20 -20 -21 -21 -21
-18 -17 -17 -15 -16 -16 -16 -15 -15 -15 -15 -15 -15 -16 -16 -16 -16 -16 -17 -17 -17 -17 -17 -16 -16 -16 -16 -16 -17 -17 -17 -17 -18 -18 -18 -19 -19 -20 -20 -20 -21 -21 -22 -22
-17 -17 -17 -15 -16 -16 -16 -15 -15 -15 -15 -16 -16 -16 -16 -16 -17 -17 -17 -17 -17 -17 -16 -16 -16 -16 -16 -16 -16 -17 -17 -17 -18 -19 -19 -19 -20 -20 -20 -21 -21 -22 -22 -23
-16 -16 -15 -16 -16 -16 -16 -15 -16 -15 -15 -15 -15 -16 -16 -17 -17 -17 -17 -17 -17 -17 -16 -16 -16 -16 -16 -17 -17 -17 -18 -18 -19 -19 -19 -20 -20 -21 -21 -21 -22 -23 -23 -23
-16 -17 -16 -16 -16 -16 -16 -16 -15 -15 -15 -16 -16 -16 -16 -17 -17 -17 -17 -17 -16 -16 -16 -16 -17 -17 -17 -17 -17 -18 -18 -19 -19 -19 -20 -20 -21 -21 -21 -22 -23 -23 -24 -24
-17 -17 -16 -17 -17 -17 -16 -16 -16 -15 -16 -16 -16 -16 -16 -16 -17 -17 -16 -16 -17 -17 -17 -17 -17 -17 -17 -17 -18 -18 -19 -19 -19 -20 -21 -21 -21 -22 -22 -23 -23 -24 -24 -24
-17 -16 -17 -17 -17 -17 -16 -16 -16 -16 -16 -16 -16 -16 -16 -16 -16 -17 -17 -17 -17 -17 -17 -17 -17 -17 -18 -18 -19 -19 -19 -20 -20 -21 -21 -21 -22 -22 -23 -24 -24 -24 -25 -25
-17 -17 -17 -17 -17 -17 -17 -17 -16 -16 -16 -16 -16 -16 -17 -17 -17 -17 -17 -17 -17 -17 -17 -17 -18 -18 -18 -19 -19 -20 -20 -21 -21 -21 -22 -22 -23 -23 -24 -24 -25 -25 -26 -26
-17 -17 -17 -17 -18 -17 -17 -17 -17 -17 -17 -17 -17 -17 -17 -17 -17 -17 -17 -17 -17 -18 -18 -18 -18 -19 -19 -19 -20 -20 -21 -21 -22 -22 -22 -23 -24 -24 -25 -25 -26 -26 -26 -27
-17 -17 -18 -18 -18 -17 -18 -18 -17 -17 -17 -17 -17 -17 -17 -17 -17 -17 -17 -17 -18 -18 -18 -19 -19 -19 -20 -20 -21 -21 -22 -22 -22 -22 -23 -24 -24 -25 -25 -26 -26 -27 -28 -30
-17 -17 -17 -18 -18 -18 -18 -18 -18 -18 -18 -18 -18 -18 -18 -18 -18 -18 -18 -18 -18 -19 -19 -19 -20 -20 -21 -21 -21 -22 -22 -22 -23 -23 -24 -25 -25 -25 -25 -26 -27 -28 -30 -31
-18 -17 -17 -18 -18 -18 -18 -18 -18 -18 -18 -18 -18 -18 -18 -18 -18 -18 -19 -19 -19 -20 -20 -20 -21 -21 -21 -22 -22 -22 -22 -23 -24 -24 -25 -25 -25 -26 -26 -27 -27 -28 -31 -31
-18 -18 -18 -18 -18 -18 -18 -18 -18 -18 -18 -18 -18 -18 -19 -19 -19 -19 -19 -20 -20 -20 -21 -21 -21 -22 -22 -22 -22 -23 -23 -24 -25 -25 -26 -26 -26 -27 -27 -28 -30 -31 -31 -31
-18 -18 -18 -18 -18 -18 -18 -19 -18 -18 -19 -19 -19 -19 -19 -19 -19 -20 -20 -20 -21 -21 -21 -22 -22 -22 -23 -23 -23 -24 -24 -25 -25 -26 -26 -26 -27 -28 -29 -30 -32 -32 -31 -31
-17 -18 -18 -18 -18 -19 -18 -18 -19 -19 -19 -19 -19 -19 -19 -20 -20 -20 -21 -21 -21 -22 -22 -23 -23 -23 -23 -23 -24 -25 -25 -26 -26 -26 -27 -27 -28 -29 -31 -32 -32 -32 -32 -32
-18 -18 -18 -18 -18 -18 -19 -19 -19 -19 -19 -19 -20 -20 -20 -20 -21 -21 -21 -21 -22 -23 -23 -23 -23 -23 -23 -24 -25 -25 -26 -26 -27 -27 -28 -29 -30 -31 -32 -32 -32 -32 -32 -33
-19 -18 -18 -19 -19 -19 -19 -19 -19 -18 -19 -19 -19 -20 -21 -21 -21 -21 -22 -22 -23 -23 -23 -23 -23 -23 -24 -25 -26 -26 -27 -27 -27 -28 -29 -31 -32 -32 -32 -32 -32 -32 -32 -33
-18 -18 -19 -19 -19 -20 -20 -19 -20 -20 -19 -19 -20 -21 -21 -21 -21 -22 -23 -23 -23 -23 -23 -23 -23 -24 -25 -26 -26 -27 -27 -28 -29 -30 -31 -32 -32 -32 -32 -32 -33 -33 -33 -34
-19 -19 -19 -19 -19 -19 -19 -19 -19 -20 -20 -21 -21 -21 -21 -22 -22 -23 -23 -23 -23 -23 -23 -24 -25 -26 -26 -27 -27 -27 -28 -29 -31 -32 -32 -32 -33 -33 -33 -33 -33 -33 -34 -35
-19 -19 -19 -19 -20 -19 -19 -20 -20 -21 -21 -21 -21 -21 -22 -22 -23 -23 -23 -23 -24 -24 -24 -25 -26 -26 -27 -27 -28 -29 -30 -31 -32 -33 -33 -33 -33 -33 -33 -33 -33 -34 -35 -35
-20 -20 -20 -20 -20 -20 -21 -21 -21 -21 -21 -21 -22 -22 -23 -23 -23 -23 -24 -24 -24 -25 -26 -26 -27 -27 -27 -28 -29 -30 -32 -32 -33 -33 -33 -33 -33 -33 -34 -34 -34 -35 -35 -36
-20 -21 -21 -21 -21 -21 -21 -21 -21 -21 -22 -22 -23 -23 -23 -23 -24 -24 -24 -25 -26 -26 -27 -27 -27 -28 -29 -30 -31 -32 -33 -33 -33 -33 -33 -33 -34 -34 -34 -35 -35 -36 -36 -37
-21 -21 -21 -21 -21 -21 -21 -22 -22 -23 -23 -23 -23 -24 -24 -24 -24 -25 -26 -27 -27 -27 -27 -28 -29 -30 -31 -32 -33 -33 -33 -33 -33 -33 -34 -34 -35 -35 -35 -36 -36 -37 -37 -37
-21 -21 -21 -21 -22 -22 -22 -23 -23 -23 -24 -24 -24 -24 -25 -26 -26 -27 -27 -27 -27 -28 -29 -30 -31 -32 -33 -33 -33 -33 -33 -34 -34 -34 -35 -35 -35 -36 -36 -37 -37 -38 -38 -38
-22 -22 -22 -23 -23 -23 -23 -24 -24 -24 -24 -25 -25 -26 -27 -27 -28 -28 -27 -28 -29 -30 -31 -32 -33 -33 -33 -33 -34 -34 -34 -34 -35 -35 -35 -36 -36 -37 -37 -38 -38 -39 -39 -39
Height
5710 5712 5712 5714 5716 5716 5716 5716 5715 5718 5717 5720 5720 5719 5718 5717 5716 5716 5716 5715 5715 5715 5715 5715 5713 5711 5709 5706 5702 5700 5699 5696 5694 5687 5679 5674 5669 5663 5654 5646 5639 5632 5624 5615
5704 5705 5706 5706 5710 5710 5711 5712 5713 5712 5712 5714 5712 5711 5710 5709 5709 5708 5708 5708 5708 5707 5707 5706 5704 5702 5700 5698 5696 5693 5690 5686 5683 5675 5669 5663 5656 5648 5641 5634 5627 5619 5610 5600
5698 5699 5698 5700 5706 5705 5707 5707 5707 5706 5709 5707 5705 5704 5703 5701 5701 5701 5701 5700 5700 5699 5698 5696 5695 5693 5691 5689 5686 5683 5679 5675 5669 5663 5656 5650 5643 5636 5628 5620 5612 5603 5593 5584
5690 5691 5688 5699 5699 5700 5700 5702 5701 5700 5700 5699 5697 5696 5695 5694 5693 5692 5692 5692 5692 5691 5690 5689 5687 5685 5683 5680 5676 5672 5667 5662 5656 5650 5643 5637 5629 5622 5614 5605 5596 5587 5577 5568
5684 5685 5686 5692 5694 5694 5693 5696 5694 5693 5692 5691 5690 5689 5688 5686 5685 5685 5684 5684 5683 5682 5681 5679 5677 5674 5671 5667 5663 5658 5654 5648 5643 5637 5630 5623 5615 5607 5599 5590 5581 5572 5563 5553
5677 5677 5679 5686 5687 5687 5686 5688 5687 5686 5685 5683 5682 5682 5681 5680 5679 5678 5677 5676 5675 5674 5672 5670 5667 5664 5661 5657 5652 5647 5641 5636 5629 5622 5615 5607 5600 5592 5584 5576 5567 5557 5548 5538
5672 5672 5673 5679 5680 5680 5680 5682 5679 5678 5677 5676 5676 5675 5674 5673 5672 5671 5670 5669 5667 5665 5663 5661 5658 5655 5650 5645 5639 5633 5627 5621 5614 5608 5600 5593 5585 5577 5568 5559 5551 5543 5534 5524
5665 5666 5666 5673 5672 5674 5674 5673 5672 5671 5670 5669 5669 5668 5667 5667 5665 5664 5663 5661 5659 5657 5654 5651 5647 5643 5637 5632 5625 5619 5613 5607 5600 5594 5586 5579 5571 5561 5553 5544 5536 5526 5516 5507
5659 5660 5662 5664 5666 5666 5666 5666 5665 5665 5664 5663 5663 5662 5662 5661 5659 5657 5655 5653 5650 5647 5644 5640 5636 5630 5624 5618 5612 5606 5599 5593 5587 5579 5571 5563 5555 5547 5538 5527 5517 5508 5496 5486
5651 5653 5655 5657 5658 5658 5658 5659 5659 5659 5658 5657 5656 5655 5654 5652 5651 5649 5646 5643 5640 5636 5632 5628 5623 5617 5611 5605 5599 5593 5585 5579 5572 5565 5556 5548 5539 5530 5521 5510 5499 5487 5476 5464
5642 5646 5648 5649 5650 5649 5650 5651 5651 5651 5651 5650 5648 5646 5645 5643 5641 5639 5636 5632 5628 5624 5619 5614 5609 5603 5598 5591 5584 5578 5571 5564 5557 5549 5541 5533 5524 5515 5505 5493 5479 5467 5453 5440
5635 5638 5636 5640 5638 5641 5642 5642 5642 5642 5641 5640 5639 5637 5635 5633 5630 5627 5624 5620 5615 5611 5606 5601 5595 5589 5582 5576 5570 5563 5556 5549 5541 5533 5525 5517 5509 5502 5489 5477 5463 5447 5432 5415
5627 5628 5628 5629 5630 5633 5633 5633 5633 5632 5631 5631 5629 5627 5624 5622 5618 5614 5611 5606 5601 5597 5591 5586 5580 5574 5568 5562 5555 5548 5541 5533 5525 5516 5508 5500 5490 5480 5474 5466 5447 5432 5415 5402
5617 5618 5619 5620 5622 5622 5622 5623 5623 5621 5620 5618 5617 5615 5612 5609 5605 5601 5596 5592 5587 5582 5577 5571 5565 5559 5553 5547 5540 5532 5524 5516 5508 5499 5490 5480 5470 5458 5447 5435 5428 5420 5405 5386
5608 5609 5610 5611 5611 5612 5612 5612 5610 5609 5608 5606 5604 5601 5598 5595 5591 5587 5582 5577 5572 5567 5561 5556 5550 5544 5538 5531 5523 5515 5507 5499 5490 5481 5472 5461 5450 5438 5425 5412 5399 5388 5381 5370
5599 5599 5600 5601 5602 5602 5601 5599 5598 5596 5595 5593 5590 5587 5584 5581 5577 5572 5568 5563 5558 5552 5547 5541 5535 5529 5522 5515 5506 5498 5490 5482 5473 5464 5454 5443 5431 5419 5406 5393 5381 5368 5356 5345
5584 5586 5588 5590 5590 5590 5591 5588 5587 5584 5582 5579 5577 5574 5570 5566 5562 5558 5553 5548 5543 5537 5532 5526 5520 5513 5506 5498 5489 5481 5473 5464 5455 5444 5434 5422 5411 5399 5387 5375 5364 5352 5337 5324
5578 5579 5580 5580 5580 5580 5578 5577 5575 5572 5570 5565 5562 5561 5558 5554 5549 5544 5539 5533 5527 5522 5517 5511 5504 5497 5489 5481 5473 5464 5455 5446 5436 5426 5414 5403 5392 5380 5369 5359 5347 5335 5322 5307
5569 5569 5568 5568 5567 5566 5565 5564 5562 5560 5557 5555 5551 5549 5545 5540 5535 5530 5524 5519 5514 5508 5502 5495 5488 5480 5471 5463 5455 5446 5437 5427 5417 5406 5395 5385 5374 5363 5353 5342 5330 5317 5305 5294
5559 5559 5558 5557 5556 5555 5553 5553 5551 5548 5546 5543 5539 5535 5531 5526 5520 5515 5510 5505 5500 5493 5486 5478 5470 5461 5454 5446 5438 5429 5419 5409 5398 5387 5378 5368 5357 5347 5336 5325 5313 5301 5289 5279
5547 5547 5547 5547 5546 5545 5542 5541 5538 5536 5532 5529 5526 5522 5517 5511 5506 5501 5496 5490 5483 5476 5468 5460 5452 5444 5436 5428 5419 5409 5399 5389 5379 5370 5361 5351 5341 5330 5320 5308 5297 5285 5274 5265
5537 5537 5537 5536 5535 5534 5532 5529 5526 5523 5520 5517 5512 5507 5501 5496 5491 5486 5480 5473 5466 5458 5449 5442 5434 5426 5417 5408 5398 5389 5380 5371 5362 5353 5343 5334 5324 5313 5302 5291 5280 5269 5260 5252
5528 5527 5526 5526 5523 5521 5519 5517 5514 5510 5506 5501 5496 5491 5486 5481 5475 5469 5462 5455 5447 5439 5431 5423 5415 5406 5397 5388 5379 5369 5361 5352 5344 5335 5325 5316 5306 5296 5286 5275 5264 5255 5247 5239
5518 5517 5516 5514 5512 5510 5507 5504 5500 5496 5491 5486 5481 5476 5470 5464 5457 5450 5443 5435 5428 5420 5412 5404 5395 5385 5376 5368 5359 5350 5342 5334 5325 5316 5307 5296 5287 5277 5267 5257 5248 5240 5233 5226
5509 5507 5505 5503 5501 5497 5494 5490 5486 5481 5476 5470 5465 5458 5452 5445 5438 5431 5423 5416 5409 5400 5391 5383 5374 5365 5357 5348 5340 5332 5323 5314 5306 5297 5287 5277 5267 5258 5248 5240 5233 5226 5219 5213
5498 5496 5493 5490 5487 5484 5480 5475 5470 5465 5459 5453 5446 5440 5433 5425 5418 5411 5404 5396 5387 5378 5370 5361 5353 5344 5336 5329 5321 5312 5303 5294 5286 5277 5267 5258 5249 5240 5231 5224 5217 5211 5206 5200
5486 5483 5480 5477 5473 5469 5464 5459 5454 5448 5441 5434 5427 5419 5412 5405 5398 5390 5381 5373 5364 5356 5347 5339 5331 5323 5316 5308 5300 5291 5282 5273 5265 5256 5248 5239 5231 5223 5215 5209 5203 5198 5193 5187
Wind_Speed
22 23 25 27 26 29 29 25 24 19 23 22 23 24 24 28 27 22 24 26 24 25 27 29 31 31 33 34 35 36 39 42 38 46 52 57 60 65 63 63 64 65 65 65
25 26 28 29 26 31 31 30 26 27 26 24 27 28 26 26 30 28 26 23 25 27 29 29 30 32 32 34 35 40 41 38 45 52 56 60 62 62 62 64 65 65 65 67
27 25 28 27 19 26 28 29 30 30 28 31 27 27 26 26 28 28 28 28 28 28 29 30 30 32 33 33 40 38 41 47 51 55 56 58 59 62 63 65 65 65 67 70
30 27 32 17 20 22 26 27 31 33 31 30 30 29 29 28 29 29 29 28 28 29 30 30 31 31 34 37 40 42 45 48 51 54 55 58 60 63 64 64 65 66 70 72
32 28 29 20 20 24 27 27 30 28 29 29 30 30 27 27 26 25 25 27 28 30 29 30 33 36 38 41 44 46 48 50 52 54 56 58 61 62 62 63 66 69 70 72
33 33 29 20 24 25 28 26 27 26 28 31 31 30 28 26 26 26 26 27 28 28 30 33 36 38 41 43 45 47 49 51 53 55 58 60 60 61 63 67 69 69 71 75
30 33 28 24 24 26 28 27 27 27 29 31 31 30 28 27 27 27 26 27 28 30 32 35 37 40 43 45 47 49 51 53 55 57 58 59 61 63 67 68 69 71 74 77
29 32 29 21 24 26 26 26 26 26 27 29 29 28 27 26 25 26 28 30 31 33 36 38 40 42 45 47 50 52 54 55 56 57 59 60 63 66 67 69 71 74 77 79
31 30 27 26 24 27 27 25 24 23 21 21 22 23 25 27 29 30 32 34 35 37 39 41 43 46 48 50 52 53 55 55 57 58 60 64 66 67 69 72 75 78 81 84
34 29 26 27 27 30 29 26 26 25 23 21 23 25 27 30 33 34 36 39 40 41 43 45 47 49 51 52 53 54 55 56 58 61 64 66 68 70 72 75 78 81 84 87
33 32 28 30 31 35 32 30 30 29 28 28 28 29 32 34 36 37 40 42 44 45 46 49 51 52 52 53 54 55 56 58 61 64 65 67 68 70 73 77 81 84 87 90
23 29 36 29 35 35 33 32 35 34 34 33 34 35 36 37 39 41 43 45 46 48 49 51 52 52 53 55 56 57 59 62 64 65 66 68 70 72 76 79 82 85 86 84
34 33 34 29 32 36 33 34 37 38 40 42 42 42 42 43 44 46 47 47 49 50 52 52 52 54 55 56 56 59 62 65 66 67 69 71 75 78 80 80 85 85 80 79
34 32 35 33 34 37 39 39 40 40 42 44 45 46 46 46 47 48 48 49 51 52 53 53 54 55 55 57 60 64 66 66 67 69 72 75 78 82 85 88 89 83 75 79
36 36 39 37 41 41 42 44 43 42 44 47 47 44 46 48 49 49 51 52 53 53 53 54 55 55 57 61 65 66 66 68 70 72 75 78 81 84 86 86 81 79 77 79
38 37 43 47 45 41 42 47 42 48 52 48 43 45 48 49 50 52 53 52 52 54 55 55 55 58 62 66 68 68 68 70 72 75 78 81 83 84 83 78 76 78 82 80
34 37 42 45 44 42 38 44 51 48 50 51 49 50 50 51 50 50 50 52 54 54 54 56 59 63 68 71 70 69 70 72 75 78 81 82 82 81 76 74 76 81 81 79
26 37 41 37 39 42 43 45 48 48 46 47 43 49 52 50 48 50 53 54 53 55 57 61 64 69 72 72 70 71 73 75 78 80 81 80 79 75 73 74 79 80 78 73
38 40 41 40 40 40 42 42 37 49 51 49 51 52 47 48 51 54 53 52 55 59 63 66 70 73 74 72 72 73 75 78 79 80 79 76 73 73 74 77 79 77 75 64
36 36 36 36 38 40 36 41 47 46 49 54 52 47 50 54 53 51 52 56 60 64 67 72 75 75 73 72 73 76 78 79 79 76 73 71 72 73 75 79 76 76 68 58
28 30 31 34 35 36 43 48 48 47 42 43 48 52 53 51 52 54 57 61 66 69 73 75 74 73 73 75 77 79 79 78 73 71 72 72 73 75 78 76 75 73 63 54
28 31 33 37 38 45 46 44 39 41 46 49 51 52 53 54 56 60 63 67 71 74 75 73 73 75 76 78 79 79 76 71 70 72 71 72 76 78 77 75 73 66 58 53
33 33 39 42 40 40 37 40 44 48 50 52 53 54 56 59 62 66 69 73 75 74 73 75 76 78 80 80 78 75 72 69 70 72 73 77 78 77 75 74 68 60 55 51
30 30 30 32 35 39 43 47 49 51 53 54 56 59 62 66 69 72 74 73 73 75 76 78 80 80 79 77 73 71 69 70 73 74 77 79 78 76 75 68 61 56 53 50
30 32 35 39 43 46 48 50 52 53 55 59 62 66 69 72 72 72 72 74 76 78 80 81 80 78 76 72 70 70 72 74 75 78 79 78 76 75 68 61 57 53 50 48
37 41 44 45 47 49 51 54 56 59 62 65 68 70 72 72 73 74 75 78 80 82 82 80 77 74 71 70 71 74 75 77 79 79 77 76 73 66 61 58 54 50 47 46
44 45 47 49 52 54 57 59 62 65 68 69 70 71 72 73 76 79 81 82 82 81 78 74 71 71 72 74 76 78 79 79 78 77 76 70 64 60 58 53 49 45 44 44
Wind_Direction
257 251 250 252 262 258 266 265 263 270 274 278 272 274 279 282 283 283 272 265 269 268 266 269 275 278 283 286 286 284 282 287 299 287 287 291 292 297 301 305 305 304 303 304
260 262 253 254 255 250 260 271 280 281 278 282 282 286 286 280 278 277 279 272 266 267 271 275 281 286 287 287 283 286 287 289 280 282 286 291 295 301 303 302 301 302 304 306
257 265 263 258 248 255 264 276 282 283 291 289 285 281 277 272 270 269 268 270 275 277 278 280 284 287 287 284 293 293 288 286 287 288 296 299 300 300 300 301 302 304 306 308
256 263 259 258 258 261 271 276 281 287 290 288 286 283 280 276 273 271 271 273 276 277 280 283 286 289 292 293 294 294 294 296 296 299 298 298 298 299 300 302 304 306 307 308
254 258 264 257 268 273 277 280 287 291 288 286 284 282 279 276 275 273 274 277 278 282 288 293 296 297 297 299 300 300 298 298 297 297 297 297 299 301 303 305 305 306 308 308
261 257 261 262 267 279 282 284 294 287 281 280 282 283 281 281 280 279 279 282 285 288 292 294 295 297 298 297 297 297 297 298 297 298 299 301 302 303 303 305 306 307 307 308
263 262 260 262 271 274 287 289 290 288 281 279 281 282 282 281 282 284 285 285 288 290 292 294 295 296 298 299 299 300 299 300 301 301 301 302 302 303 305 306 306 307 308 310
259 258 256 265 265 275 282 289 289 290 286 282 283 284 283 284 285 288 290 292 294 295 296 297 299 301 301 301 301 301 302 301 301 302 302 302 304 305 305 305 307 308 309 310
262 262 258 257 267 273 278 283 286 287 286 285 283 284 286 287 290 294 296 297 298 299 300 302 303 302 302 301 301 302 302 301 302 301 302 304 304 304 305 307 309 309 311 312
259 257 260 260 264 272 274 280 284 283 282 280 283 286 287 290 293 296 297 298 300 302 303 303 302 302 302 302 301 300 302 302 302 303 304 303 304 306 308 309 310 311 312 312
261 255 261 259 265 265 271 275 279 281 283 285 286 287 288 290 293 295 296 299 301 301 302 302 302 301 301 301 302 303 302 302 303 303 303 304 306 307 308 310 311 312 313 314
263 261 258 254 259 266 269 272 275 277 280 281 283 284 286 288 291 294 296 299 299 300 300 300 300 302 303 303 303 302 302 303 303 304 304 304 305 306 309 312 313 314 314 314
260 264 250 247 258 267 271 273 274 276 278 280 281 283 286 289 292 293 296 298 299 299 300 300 301 302 303 302 302 302 303 304 304 304 304 304 306 309 311 313 314 315 314 313
264 260 254 261 266 267 272 276 276 276 279 281 283 286 289 291 292 295 297 298 299 299 299 301 302 302 302 302 303 305 306 305 304 304 305 307 310 312 314 314 315 316 313 315
254 252 259 258 263 268 272 273 275 278 282 284 284 285 288 291 293 295 297 297 298 299 301 302 302 302 303 305 307 307 305 304 304 305 308 310 312 314 315 316 316 316 316 318
256 259 264 261 261 271 279 276 267 281 285 280 279 285 287 289 291 293 293 296 298 300 301 301 300 302 305 307 307 306 305 305 306 308 310 312 314 315 316 316 316 317 319 318
264 263 262 249 261 270 261 268 280 280 285 287 288 290 289 289 289 291 296 298 299 300 299 298 299 301 305 307 306 305 304 306 308 310 312 313 314 316 316 315 318 319 319 319
259 250 245 258 264 267 271 274 280 285 274 265 283 291 288 289 293 295 297 299 298 297 296 298 298 299 303 305 305 305 306 308 309 311 312 314 315 316 315 317 320 320 320 320
268 271 274 276 277 281 284 284 283 273 276 276 290 290 290 291 294 296 297 296 295 295 296 297 298 300 304 305 305 306 307 309 310 312 313 314 315 315 316 319 320 320 321 319
263 268 272 275 280 280 280 268 274 270 274 282 286 287 289 292 294 294 294 293 293 295 297 298 300 303 305 305 305 306 308 310 311 312 312 313 314 315 318 320 320 321 321 317
268 274 275 277 278 278 282 274 272 277 285 285 286 289 292 293 293 293 293 293 295 296 297 300 303 303 304 305 306 307 309 310 310 311 312 313 314 317 318 319 320 320 318 315
275 277 275 271 270 265 270 276 279 284 287 289 291 291 292 292 292 292 293 294 295 297 300 302 302 303 305 306 306 308 308 308 308 311 312 313 315 316 318 319 319 318 316 314
273 267 260 264 271 271 275 281 285 289 291 292 291 291 291 291 292 293 293 295 297 300 301 302 303 304 304 305 306 306 306 306 308 310 312 314 314 316 317 318 316 315 313 312
266 266 269 273 275 277 281 286 289 290 291 291 290 290 290 290 291 292 295 297 299 300 301 302 303 303 303 304 305 305 305 305 308 310 312 312 313 315 316 315 313 312 311 310
279 281 280 278 280 285 288 289 290 290 289 288 288 289 288 289 292 295 297 299 300 300 300 300 301 302 302 303 304 305 305 307 308 310 311 311 313 314 313 312 311 310 309 308
283 284 286 288 289 289 288 287 286 286 286 286 287 288 291 294 296 298 298 298 298 298 299 300 300 302 303 303 304 305 306 307 308 309 310 311 311 311 311 310 309 308 307 308
286 287 287 288 287 287 286 286 285 285 287 289 292 294 295 297 297 297 296 296 297 298 300 301 302 302 303 303 304 305 305 306 307 308 309 309 310 310 309 309 307 306 306 308